ONEWEB-0307 (49189 NORAD) Tracking and Keplerian Element Data

This shows tracking and keplerian element data for the satellite.

Feedback or suggestion? Click here.




ElementValue
Catalog49189
NameONEWEB-0307
Epoch Orbit364
Epoch Day287.91667824
Epoch Year2021
RAAN317.5669
Inclination87.2175
Eccentricity0.0017947
Argument of Perigee184.6471
Mean Anonmoly112.1712
Mean Motion14.92557855
Decay Rate-0.01286791
L11 49189U 21083D 21287.91667824 -.01286791 00000-0 -13540+0 0 9996
L22 49189 87.2175 317.5669 0017947 184.6471 112.1712 14.92557855 3648

Live tracking and technical data element details for ONEWEB-0307 (NORAD 49189). ONEWEB-0307 can be tracked NOW for your location showing map with azimuth and elevation plus other details from your city location.

Track the satellite on the map from your city or location and see movement details for azimuth, elevation, latitude, longitude, range, height, and movement on the map or in text.







IsCatalogInMostPopularTable: catalog: 49189, numindb: 10
Update: records affected: 1



GetName: 49189 ONEWEB-0307

Hit Count: updated at: Tue, 19 Oct 2021 08:09:17 GMT